This is the latest recevied weather packets stored in our database for station/object KC2GYU. If no packets are shown the sender has not sent any weather packets the latest 10 day(s).
| Time | Temp. | Humidity | Pressure | Rain* | Wind** | Luminosity | Snow |
|---|---|---|---|---|---|---|---|
| 1778071185 | 18.33° C | 87% | 1012.5 hPa | 0 mm | - | 362 W/m² | - |
| 1778070883 | 18.33° C | 88% | 1012.7 hPa | 0 mm | - | 294 W/m² | - |
| 1778070580 | 17.78° C | 88% | 1012.4 hPa | 0 mm | - | 269 W/m² | - |
| 1778070277 | 17.78° C | 89% | 1012.5 hPa | 0 mm | - | 252 W/m² | - |
| 1778069975 | 17.78° C | 89% | 1012.6 hPa | 0 mm | - | 239 W/m² | - |
| 1778069672 | 17.22° C | 90% | 1012.4 hPa | 0 mm | - | 208 W/m² | - |
| 1778069369 | 17.22° C | 91% | 1012.5 hPa | 0 mm | - | 166 W/m² | - |
| 1778069066 | 17.22° C | 91% | 1012.7 hPa | 0 mm | - | 121 W/m² | - |
| 1778068764 | 17.22° C | 91% | 1012.4 hPa | 0 mm | - | 99 W/m² | - |
| 1778068461 | 17.22° C | 90% | 1012.6 hPa | 0 mm | - | 161 W/m² | - |
| 1778068160 | 17.22° C | 90% | 1012.4 hPa | 0 mm | - | 200 W/m² | - |
| 1778067857 | 17.22° C | 91% | 1012.4 hPa | 0 mm | - | 117 W/m² | - |
| 1778067556 | 16.67° C | 92% | 1012.6 hPa | 0 mm | - | 106 W/m² | - |
| 1778067253 | 16.67° C | 92% | 1012.5 hPa | 0 mm | - | 112 W/m² | - |
| 1778066949 | 16.11° C | 93% | 1012.4 hPa | 0 mm | - | 95 W/m² | - |
| 1778066647 | 15.56° C | 94% | 1012.3 hPa | 0 mm | - | 78 W/m² | - |
| 1778066344 | 15.56° C | 95% | 1012.1 hPa | 0 mm | - | 70 W/m² | - |
| 1778066042 | 15° C | 96% | 1012.4 hPa | 0 mm | - | 52 W/m² | - |
| 1778065739 | 15° C | 96% | 1012.6 hPa | 0 mm | - | 42 W/m² | - |
| 1778065436 | 14.44° C | 97% | 1012.5 hPa | 0 mm | - | 38 W/m² | - |
| 1778065133 | 14.44° C | 97% | 1012.6 hPa | 0 mm | - | 33 W/m² | - |
| 1778064829 | 14.44° C | 97% | 1012.6 hPa | 0 mm | - | 31 W/m² | - |
| 1778064527 | 13.89° C | 97% | 1012.3 hPa | 0 mm | - | 28 W/m² | - |
| 1778064224 | 13.89° C | 97% | 1012.5 hPa | 0 mm | - | 25 W/m² | - |
| 1778063922 | 13.89° C | 97% | 1012.4 hPa | 0 mm | - | 23 W/m² | - |
* Rain latest hour (hover to see other rain measurements)
** Current wind speed in m/s (hover to see current wind gust speed)